TimeMST,TemperatureF,Dew PointF,Humidity,Sea Level PressureIn,VisibilityMPH,Wind Direction,Wind SpeedMPH,Gust SpeedMPH,PrecipitationIn,Events,Conditions,WindDirDegrees,DateUTC
12:03 AM,-5.8,-9.4,84,30.38,0.2,Calm,Calm,-,N/A,Fog,Light Freezing Fog,0,2013-01-04 07:03:00
12:17 AM,-4.0,-7.6,85,30.38,1.0,Calm,Calm,-,N/A,,Clear,0,2013-01-04 07:17:00
12:23 AM,-5.8,-9.4,84,30.38,4.0,WSW,3.5,-,N/A,,Clear,250,2013-01-04 07:23:00
12:53 AM,-9.9,-15.0,78,30.65,6.0,NNW,3.5,-,N/A,,Haze,340,2013-01-04 07:53:00
1:00 AM,-9.4,-11.2,92,30.37,1.8,North,3.5,-,N/A,,Clear,360,2013-01-04 08:00:00
1:07 AM,-7.6,-9.4,92,30.37,0.5,Calm,Calm,-,N/A,Fog,Light Freezing Fog,0,2013-01-04 08:07:00
1:14 AM,-9.4,-11.2,92,30.37,0.2,Calm,Calm,-,N/A,Fog,Light Freezing Fog,0,2013-01-04 08:14:00
1:50 AM,-9.4,-13.0,84,30.37,0.5,Calm,Calm,-,N/A,Fog,Light Freezing Fog,0,2013-01-04 08:50:00
1:53 AM,-7.1,-11.9,79,30.63,0.8,Calm,Calm,-,N/A,,Haze,0,2013-01-04 08:53:00
1:56 AM,-5.8,-9.4,84,30.37,2.5,Calm,Calm,-,N/A,,Scattered Clouds,0,2013-01-04 08:56:00
2:03 AM,-7.6,-11.2,84,30.37,5.0,West,3.5,-,N/A,,Partly Cloudy,260,2013-01-04 09:03:00
2:53 AM,-7.1,-11.0,83,30.64,9.0,Calm,Calm,-,N/A,,Clear,0,2013-01-04 09:53:00
3:36 AM,-5.8,-9.4,84,30.38,2.0,Calm,Calm,-,N/A,,Clear,0,2013-01-04 10:36:00
3:44 AM,-9.4,-11.2,92,30.37,3.0,Calm,Calm,-,N/A,,Partly Cloudy,0,2013-01-04 10:44:00
3:53 AM,-9.0,-14.1,79,30.64,6.0,Calm,Calm,-,N/A,,Haze,0,2013-01-04 10:53:00
4:27 AM,-9.4,-13.0,84,30.37,1.8,Calm,Calm,-,N/A,,Scattered Clouds,0,2013-01-04 11:27:00
4:30 AM,-9.4,-13.0,84,30.37,0.8,Calm,Calm,-,N/A,,Mist,0,2013-01-04 11:30:00
4:35 AM,-9.4,-14.8,77,30.38,0.2,NNW,3.5,-,N/A,Fog,Light Freezing Fog,340,2013-01-04 11:35:00
4:53 AM,-11.2,-14.8,84,30.38,0.2,WNW,4.6,-,N/A,Fog,Light Freezing Fog,300,2013-01-04 11:53:00
5:01 AM,-11.2,-14.8,84,30.38,0.2,WNW,4.6,-,N/A,Fog,Light Freezing Fog,300,2013-01-04 12:01:00
5:16 AM,-9.4,-13.0,84,30.38,1.0,Calm,Calm,-,N/A,,Mist,0,2013-01-04 12:16:00
5:25 AM,-9.4,-14.8,77,30.39,0.8,Calm,Calm,-,N/A,,Mist,0,2013-01-04 12:25:00
5:38 AM,-11.2,-14.8,84,30.38,0.2,Calm,Calm,-,N/A,Fog,Light Freezing Fog,0,2013-01-04 12:38:00
5:53 AM,-11.2,-16.6,77,30.38,0.8,ESE,4.6,-,N/A,,Mist,110,2013-01-04 12:53:00
6:00 AM,-9.4,-14.8,77,30.37,1.2,ESE,4.6,-,N/A,,Scattered Clouds,110,2013-01-04 13:00:00
6:11 AM,-9.4,-14.8,77,30.38,4.0,NNE,3.5,-,N/A,,Scattered Clouds,30,2013-01-04 13:11:00
6:53 AM,-7.1,-11.0,83,30.69,6.0,North,4.6,-,N/A,,Partly Cloudy,350,2013-01-04 13:53:00
7:53 AM,-7.1,-11.0,83,30.71,8.0,Calm,Calm,-,N/A,,Clear,0,2013-01-04 14:53:00
8:53 AM,-6.0,-9.9,83,30.71,6.0,Calm,Calm,-,N/A,,Clear,0,2013-01-04 15:53:00
9:53 AM,-4.0,-5.1,95,30.72,7.0,Calm,Calm,-,0.00,,Clear,0,2013-01-04 16:53:00
10:53 AM,5.0,1.0,84,30.69,10.0,Calm,Calm,-,N/A,,Clear,0,2013-01-04 17:53:00
11:53 AM,6.1,3.9,91,30.68,8.0,Calm,Calm,-,N/A,,Clear,0,2013-01-04 18:53:00
12:53 PM,10.0,3.0,73,30.66,8.0,Calm,Calm,-,N/A,,Clear,0,2013-01-04 19:53:00
1:53 PM,15.1,3.9,61,30.61,6.0,Calm,Calm,-,N/A,,Haze,0,2013-01-04 20:53:00
2:53 PM,17.1,5.0,59,30.60,7.0,Calm,Calm,-,N/A,,Clear,0,2013-01-04 21:53:00
3:53 PM,12.0,3.9,70,30.61,5.0,Calm,Calm,-,N/A,,Haze,0,2013-01-04 22:53:00
4:53 PM,6.1,-0.0,76,30.66,10.0,NW,5.8,-,N/A,,Clear,320,2013-01-04 23:53:00
5:53 PM,3.9,-0.0,84,30.69,10.0,SE,3.5,-,N/A,,Clear,130,2013-01-05 00:53:00
6:53 PM,-0.4,-5.8,78,30.36,7.0,Calm,Calm,-,N/A,,Clear,0,2013-01-05 01:53:00
7:53 PM,-0.9,-5.1,83,30.67,10.0,Calm,Calm,-,N/A,,Clear,0,2013-01-05 02:53:00
8:53 PM,-2.0,-6.0,83,30.67,10.0,NNE,3.5,-,N/A,,Clear,30,2013-01-05 03:53:00
9:53 PM,-0.9,-4.0,87,30.68,7.0,North,5.8,-,N/A,,Clear,10,2013-01-05 04:53:00
10:53 PM,-4.0,-7.1,87,30.65,6.0,Calm,Calm,-,N/A,,Clear,0,2013-01-05 05:53:00
11:53 PM,-6.0,-9.0,87,30.65,5.0,Calm,Calm,-,N/A,,Clear,0,2013-01-05 06:53:00